Time,TemperatureF,DewpointF,PressureIn,WindDirection,WindDirectionDegrees,WindSpeedMPH,WindSpeedGustMPH,Humidity,HourlyPrecipIn,Conditions,Clouds,dailyrainin,SoftwareType,DateUTC
2013-01-05 18:27:00,45.3,45.3,-100.00,ESE,103,4.2,7.6,100,3.19,,,3.19,WSDL version 420,2013-01-06 02:27:00,
2013-01-05 18:37:00,45.1,45.1,29.91,ENE,70,3.7,7.2,100,3.23,,,3.23,WSDL version 420,2013-01-06 02:37:00,
2013-01-05 18:42:00,45.1,45.1,29.91,ENE,76,3.0,6.5,100,3.23,,,3.23,WSDL version 420,2013-01-06 02:42:00,
2013-01-05 18:47:00,45.1,45.1,29.88,East,82,3.4,8.5,100,3.23,,,3.23,WSDL version 420,2013-01-06 02:47:00,
2013-01-05 18:52:00,45.0,45.0,29.88,ENE,73,4.0,8.5,100,3.23,,,3.23,WSDL version 420,2013-01-06 02:52:00,
2013-01-05 18:57:00,44.8,44.8,29.88,East,84,6.7,10.1,100,3.23,,,3.23,WSDL version 420,2013-01-06 02:57:00,
2013-01-05 19:02:00,44.8,44.8,29.88,ESE,118,4.3,10.1,100,3.23,,,3.23,WSDL version 420,2013-01-06 03:02:00,
2013-01-05 19:07:00,44.7,44.7,29.88,ENE,65,3.3,7.8,100,3.23,,,3.23,WSDL version 420,2013-01-06 03:07:00,
2013-01-05 19:12:00,44.7,44.7,29.88,East,98,3.1,5.6,100,3.28,,,3.28,WSDL version 420,2013-01-06 03:12:00,
2013-01-05 19:17:00,44.6,44.6,29.88,ENE,78,3.0,7.4,100,3.28,,,3.28,WSDL version 420,2013-01-06 03:17:00,
2013-01-05 19:22:00,44.6,44.6,29.88,ESE,113,4.8,7.4,100,3.28,,,3.28,WSDL version 420,2013-01-06 03:22:00,
2013-01-05 19:27:00,44.6,44.6,29.88,ENE,70,2.5,7.2,100,0.09,,,3.28,WSDL version 420,2013-01-06 03:27:00,
2013-01-05 19:32:00,44.6,44.6,29.88,ESE,107,3.5,6.9,100,0.05,,,3.28,WSDL version 420,2013-01-06 03:32:00,
2013-01-05 19:37:00,44.4,44.4,29.88,ESE,103,5.1,7.2,100,0.05,,,3.28,WSDL version 420,2013-01-06 03:37:00,
2013-01-05 19:42:00,44.4,44.4,29.88,East,93,3.4,7.2,100,0.05,,,3.28,WSDL version 420,2013-01-06 03:42:00,
2013-01-05 19:47:00,44.4,44.4,29.88,ESE,105,3.6,7.2,100,0.09,,,3.32,WSDL version 420,2013-01-06 03:47:00,
2013-01-05 19:52:00,44.2,44.2,29.88,East,83,4.7,8.7,100,0.09,,,3.32,WSDL version 420,2013-01-06 03:52:00,
2013-01-05 19:57:00,44.2,44.2,29.88,East,98,5.0,8.7,100,0.09,,,3.32,WSDL version 420,2013-01-06 03:57:00,
2013-01-05 20:02:00,44.2,44.2,29.91,ENE,75,4.6,11.0,100,0.09,,,3.32,WSDL version 420,2013-01-06 04:02:00,
2013-01-05 20:07:00,44.1,44.1,29.91,East,101,3.5,11.0,100,0.09,,,3.32,WSDL version 420,2013-01-06 04:07:00,
2013-01-05 20:12:00,44.1,44.1,29.91,East,98,4.7,8.7,100,0.08,,,3.36,WSDL version 420,2013-01-06 04:12:00,
2013-01-05 20:17:00,44.1,44.1,29.88,ENE,70,5.5,8.7,100,0.08,,,3.36,WSDL version 420,2013-01-06 04:17:00,
2013-01-05 20:22:00,44.1,44.1,29.88,ENE,73,3.7,8.7,100,0.08,,,3.36,WSDL version 420,2013-01-06 04:22:00,
2013-01-05 20:27:00,44.2,44.2,29.88,East,95,3.5,6.3,100,0.08,,,3.36,WSDL version 420,2013-01-06 04:27:00,
2013-01-05 20:32:00,44.1,44.1,29.88,East,83,4.4,7.8,100,0.12,,,3.40,WSDL version 420,2013-01-06 04:32:00,
2013-01-05 20:37:00,44.1,44.1,29.88,ENE,76,4.3,7.8,100,0.12,,,3.40,WSDL version 420,2013-01-06 04:37:00,
2013-01-05 20:42:00,44.1,44.1,29.88,NE,51,4.9,7.4,100,0.12,,,3.40,WSDL version 420,2013-01-06 04:42:00,
2013-01-05 20:47:00,44.1,44.1,29.88,East,83,7.2,10.3,100,0.08,,,3.40,WSDL version 420,2013-01-06 04:47:00,
2013-01-05 20:52:00,44.1,44.1,29.88,East,79,5.3,10.3,100,0.08,,,3.40,WSDL version 420,2013-01-06 04:52:00,
2013-01-05 20:57:00,44.0,44.0,29.88,East,83,6.3,10.1,100,0.08,,,3.40,WSDL version 420,2013-01-06 04:57:00,
2013-01-05 21:04:00,43.9,43.9,29.88,SE,127,7.7,10.3,100,0.08,,,3.40,WSDL version 420,2013-01-06 05:04:00,
2013-01-05 21:09:00,43.9,43.9,29.88,ENE,78,5.8,10.3,100,0.08,,,3.40,WSDL version 420,2013-01-06 05:09:00,
2013-01-05 21:14:00,43.8,43.8,29.88,ESE,103,6.9,11.0,100,0.04,,,3.40,WSDL version 420,2013-01-06 05:14:00,
2013-01-05 21:19:00,43.7,43.7,29.88,NE,56,6.0,11.2,100,0.04,,,3.40,WSDL version 420,2013-01-06 05:19:00,
2013-01-05 21:24:00,43.7,43.7,29.88,East,95,6.5,11.2,100,0.04,,,3.40,WSDL version 420,2013-01-06 05:24:00,
2013-01-05 21:29:00,43.7,43.7,29.88,East,96,5.6,10.1,100,0.04,,,3.40,WSDL version 420,2013-01-06 05:29:00,
2013-01-05 21:34:00,43.7,43.7,29.88,ENE,70,6.4,10.5,100,0.00,,,3.40,WSDL version 420,2013-01-06 05:34:00,
2013-01-05 21:39:00,43.7,43.7,29.88,ENE,75,7.9,13.0,100,0.00,,,3.40,WSDL version 420,2013-01-06 05:39:00,
2013-01-05 21:44:00,43.6,43.6,29.88,ENE,73,6.6,13.0,100,0.00,,,3.40,WSDL version 420,2013-01-06 05:44:00,
2013-01-05 21:49:00,43.5,43.5,29.88,East,95,8.2,13.2,100,0.00,,,3.40,WSDL version 420,2013-01-06 05:49:00,
2013-01-05 21:54:00,43.5,43.5,29.88,East,87,7.4,13.2,100,0.00,,,3.40,WSDL version 420,2013-01-06 05:54:00,
2013-01-05 21:59:00,43.5,43.5,29.88,East,93,5.7,12.3,100,0.00,,,3.40,WSDL version 420,2013-01-06 05:59:00,
2013-01-05 22:04:00,43.4,43.4,29.88,ESE,110,8.6,11.9,100,0.00,,,3.40,WSDL version 420,2013-01-06 06:04:00,
2013-01-05 22:09:00,43.3,43.3,29.88,East,101,8.1,13.2,100,0.00,,,3.40,WSDL version 420,2013-01-06 06:09:00,
2013-01-05 22:14:00,43.3,43.3,29.88,ESE,110,7.9,13.2,100,0.00,,,3.40,WSDL version 420,2013-01-06 06:14:00,
2013-01-05 22:19:00,43.3,43.3,29.88,ESE,118,7.8,12.3,100,0.00,,,3.40,WSDL version 420,2013-01-06 06:19:00,
2013-01-05 22:24:00,43.3,43.3,29.88,East,85,9.7,12.3,100,0.00,,,3.40,WSDL version 420,2013-01-06 06:24:00,
2013-01-05 22:29:00,43.3,43.3,29.88,East,82,8.0,12.3,100,0.00,,,3.40,WSDL version 420,2013-01-06 06:29:00,
2013-01-05 22:34:00,43.3,43.3,29.88,East,93,7.5,12.3,100,0.00,,,3.40,WSDL version 420,2013-01-06 06:34:00,
2013-01-05 22:39:00,43.3,43.3,29.88,East,95,7.1,12.3,100,0.00,,,3.40,WSDL version 420,2013-01-06 06:39:00,
2013-01-05 22:44:00,43.3,43.3,29.88,East,96,8.2,11.0,100,0.00,,,3.40,WSDL version 420,2013-01-06 06:44:00,
2013-01-05 22:49:00,43.5,43.5,29.88,SE,133,4.9,11.0,100,0.00,,,3.40,WSDL version 420,2013-01-06 06:49:00,
2013-01-05 22:54:00,43.5,43.5,29.88,East,87,8.7,14.8,100,0.00,,,3.40,WSDL version 420,2013-01-06 06:54:00,
2013-01-05 22:59:00,43.5,43.5,29.88,East,93,8.4,14.8,100,0.00,,,3.40,WSDL version 420,2013-01-06 06:59:00,
2013-01-05 23:04:00,43.5,43.5,29.88,East,90,7.3,12.8,100,0.00,,,3.40,WSDL version 420,2013-01-06 07:04:00,
2013-01-05 23:09:00,43.5,43.5,29.88,ESE,103,7.6,12.3,100,0.00,,,3.40,WSDL version 420,2013-01-06 07:09:00,
2013-01-05 23:14:00,43.4,43.4,29.91,East,93,6.6,12.3,100,0.00,,,3.40,WSDL version 420,2013-01-06 07:14:00,
2013-01-05 23:19:00,43.3,43.3,29.91,East,100,6.5,12.3,100,0.00,,,3.40,WSDL version 420,2013-01-06 07:19:00,
2013-01-05 23:24:00,43.3,43.3,29.91,ESE,104,7.7,12.3,100,0.00,,,3.40,WSDL version 420,2013-01-06 07:24:00,
2013-01-05 23:29:00,43.3,43.3,29.88,East,96,7.5,13.2,100,0.04,,,3.44,WSDL version 420,2013-01-06 07:29:00,
2013-01-05 23:34:00,43.3,43.3,29.88,NW,308,5.5,13.2,100,0.04,,,3.44,WSDL version 420,2013-01-06 07:34:00,
2013-01-05 23:44:00,43.3,43.3,29.88,ESE,105,6.4,10.3,100,0.04,,,3.44,WSDL version 420,2013-01-06 07:44:00,
2013-01-05 23:49:00,43.3,43.3,29.88,East,83,7.3,13.2,100,0.04,,,3.44,WSDL version 420,2013-01-06 07:49:00,
2013-01-05 23:59:00,43.2,43.2,29.88,ENE,78,6.4,10.7,100,0.04,,,3.44,WSDL version 420,2013-01-06 07:59:00,